Location: Sungai Kamana Besar
(2.6333°N, 113.4333°E)
Time: 06:37:23
(UTC+00:00)

Ariane H10 - Visible Passes

Search period start: 06 October 2022 00:00
Search period end: 16 October 2022 00:00
Orbit: 341 x 30642 km, 7.3° (Epoch: 05 October)

Date Brightness Start Highest point End Pass type
(mag) Time Alt. Az. Time Alt. Az. Time Alt. Az.
06 Oct 6.1 06:21:42 10° W 07:58:20 30° W 14:03:09 48° SW visible
08 Oct 6.9 02:28:45 10° W 10:12:54 77° SSW 10:44:24 10° ESE visible
08 Oct 3.6 20:05:55 65° E 20:05:55 65° E 20:17:16 10° E visible
09 Oct 5.8 05:45:23 10° W 07:28:29 37° W 13:34:52 57° SSW visible
11 Oct 4.8 19:37:14 33° E 19:37:14 33° E 19:43:36 10° E visible
12 Oct 5.6 05:10:21 10° W 06:58:02 43° W 13:06:16 56° SSE visible
14 Oct 5.8 19:08:13 18° E 19:08:13 18° E 19:10:38 10° E visible
15 Oct 5.7 04:36:07 10° W 06:26:59 50° W 12:37:20 46° SE visible
